When you browse on this site, cookies collect data to enhance your experience and personalize the content and advertising you see.
Visit our Privacy Policy to learn more. By continuing to use the site, you agree to this use of cookies and data.
  • In Austria
  • List of Countries
  • For 7 days
  • Water Temperature
  • Satellite Maps
  • Weather Map
  • News
  • Weather Widgets
  • user-avatar
    Login

    Hourly Weather Bad Hall

    Today, 21 February, Thursday

    Time Temperature Precipitation Wind Pressure Humidity
    00:00 +5°C° 0 mm 1 mps 735 mmHg 91%
    01:00 +5°C° 0 mm 1 mps 735 mmHg 91%
    02:00 +5°C° 0 mm 1 mps 735 mmHg 90%
    03:00 +5°C° 0 mm 1 mps 735 mmHg 90%
    04:00 +5°C° 0 mm 1 mps 735 mmHg 89%
    05:00 +5°C° 0 mm 1 mps 736 mmHg 89%
    06:00 +5°C° 0 mm 1 mps 736 mmHg 89%
    07:00 +5°C° 0 mm 1 mps 736 mmHg 89%
    08:00 +6°C° 0 mm 1 mps 736 mmHg 85%
    09:00 +7°C° 0 mm 1 mps 736 mmHg 82%
    10:00 +9°C° 0 mm 1 mps 736 mmHg 78%
    11:00 +8°C° 0 mm 2 mps 736 mmHg 75%
    12:00 +9°C° 0 mm 2 mps 735 mmHg 73%
    13:00 +10°C° 0 mm 3 mps 735 mmHg 70%
    14:00 +10°C° 0 mm 3 mps 735 mmHg 71%
    15:00 +10°C° 0 mm 3 mps 735 mmHg 72%
    16:00 +10°C° 0 mm 3 mps 735 mmHg 74%
    17:00 +9°C° 0 mm 2 mps 735 mmHg 78%
    18:00 +8°C° 0 mm 2 mps 735 mmHg 83%
    19:00 +7°C° 0 mm 2 mps 735 mmHg 87%
    20:00 +7°C° 0.2 mm 2 mps 735 mmHg 88%
    21:00 +7°C° 0.2 mm 2 mps 736 mmHg 89%
    22:00 +7°C° 0.2 mm 2 mps 736 mmHg 90%
    23:00 +7°C° 0.1 mm 3 mps 736 mmHg 90%

    Tomorrow, 22 February, Friday

    Time Temperature Precipitation Wind Pressure Humidity
    00:00 +7°C° 0.1 mm 3 mps 736 mmHg 90%
    01:00 +6°C° 0.1 mm 4 mps 736 mmHg 90%
    02:00 +6°C° 1 mm 4 mps 735 mmHg 90%
    03:00 +6°C° 1 mm 5 mps 735 mmHg 90%
    04:00 +5°C° 1 mm 6 mps 735 mmHg 90%
    05:00 +5°C° 1.3 mm 6 mps 735 mmHg 90%
    06:00 +6°C° 1.3 mm 5 mps 735 mmHg 90%
    07:00 +6°C° 1.3 mm 5 mps 735 mmHg 91%
    08:00 +6°C° 0.7 mm 5 mps 735 mmHg 90%
    09:00 +6°C° 0.7 mm 5 mps 736 mmHg 90%
    10:00 +6°C° 0.7 mm 5 mps 736 mmHg 89%
    11:00 +7°C° 0.5 mm 5 mps 736 mmHg 88%
    12:00 +7°C° 0.5 mm 4 mps 736 mmHg 87%
    13:00 +7°C° 0.5 mm 4 mps 737 mmHg 87%
    14:00 +7°C° 0.5 mm 4 mps 737 mmHg 84%
    15:00 +8°C° 0.5 mm 3 mps 737 mmHg 82%
    16:00 +9°C° 0.5 mm 3 mps 738 mmHg 79%
    17:00 +8°C° 0.2 mm 2 mps 738 mmHg 82%
    18:00 +7°C° 0.2 mm 2 mps 739 mmHg 85%
    19:00 +7°C° 0.2 mm 1 mps 740 mmHg 89%
    20:00 +6°C° 0.1 mm 1 mps 740 mmHg 89%
    21:00 +6°C° 0.1 mm 1 mps 741 mmHg 89%
    22:00 +5°C° 0.1 mm 1 mps 741 mmHg 89%
    23:00 +4°C° 0 mm 1 mps 741 mmHg 89%

    Day after tomorrow, 23 February, Saturday

    Time Temperature Precipitation Wind Pressure Humidity
    00:00 +3°C° 0 mm 1 mps 742 mmHg 88%
    01:00 +2°C° 0 mm 1 mps 742 mmHg 87%
    02:00 +2°C° 0 mm 1 mps 742 mmHg 86%
    03:00 +1°C° 0 mm 1 mps 742 mmHg 84%
    04:00 +1°C° 0 mm 1 mps 742 mmHg 83%
    05:00 +1°C° 0 mm 1 mps 742 mmHg 81%
    06:00 0°C° 0 mm 1 mps 742 mmHg 79%
    07:00 0°C° 0 mm 1 mps 742 mmHg 78%
    08:00 +2°C° 0 mm 1 mps 742 mmHg 69%
    09:00 +3°C° 0 mm 1 mps 743 mmHg 60%
    10:00 +3°C° 0 mm 2 mps 743 mmHg 51%
    11:00 +4°C° 0 mm 2 mps 743 mmHg 47%
    12:00 +5°C° 0 mm 2 mps 743 mmHg 43%
    13:00 +6°C° 0 mm 2 mps 742 mmHg 39%
    14:00 +6°C° 0 mm 2 mps 742 mmHg 40%
    15:00 +5°C° 0 mm 2 mps 742 mmHg 42%
    16:00 +5°C° 0 mm 2 mps 742 mmHg 43%
    17:00 +4°C° 0 mm 2 mps 742 mmHg 48%
    18:00 +2°C° 0 mm 2 mps 742 mmHg 53%
    19:00 +2°C° 0 mm 1 mps 742 mmHg 57%
    20:00 +2°C° 0 mm 1 mps 743 mmHg 57%
    21:00 +1°C° 0 mm 1 mps 743 mmHg 56%
    22:00 +1°C° 0 mm 1 mps 743 mmHg 55%
    23:00 +1°C° 0 mm 1 mps 743 mmHg 53%

    24 February, Sunday

    Time Temperature Precipitation Wind Pressure Humidity
    00:00 +1°C° 0 mm 1 mps 743 mmHg 52%
    01:00 +1°C° 0 mm 1 mps 743 mmHg 50%
    02:00 +1°C° 0 mm 1 mps 742 mmHg 49%
    03:00 +1°C° 0 mm 1 mps 742 mmHg 48%
    04:00 +1°C° 0 mm 1 mps 742 mmHg 47%
    05:00 +1°C° 0 mm 1 mps 742 mmHg 47%
    06:00 +1°C° 0 mm 1 mps 742 mmHg 46%
    07:00 +1°C° 0 mm 1 mps 742 mmHg 45%
    08:00 +3°C° 0 mm 1 mps 742 mmHg 41%
    09:00 +4°C° 0 mm 1 mps 742 mmHg 37%
    10:00 +6°C° 0 mm 1 mps 742 mmHg 34%
    11:00 +7°C° 0 mm 1 mps 742 mmHg 34%
    12:00 +8°C° 0 mm 1 mps 741 mmHg 34%
    13:00 +9°C° 0 mm 1 mps 741 mmHg 34%
    14:00 +9°C° 0 mm 1 mps 741 mmHg 39%
    15:00 +8°C° 0 mm 0 mps 741 mmHg 43%
    16:00 +8°C° 0 mm 0 mps 740 mmHg 48%
    17:00 +7°C° 0 mm 0 mps 741 mmHg 51%
    18:00 +6°C° 0 mm 1 mps 741 mmHg 54%
    19:00 +5°C° 0 mm 1 mps 741 mmHg 57%
    20:00 +4°C° 0 mm 1 mps 741 mmHg 59%
    21:00 +4°C° 0 mm 1 mps 741 mmHg 62%
    22:00 +4°C° 0 mm 1 mps 741 mmHg 64%
    23:00 +3°C° 0 mm 1 mps 741 mmHg 66%

    25 February, Monday

    Time Temperature Precipitation Wind Pressure Humidity
    00:00 +3°C° 0 mm 1 mps 741 mmHg 67%
    01:00 +3°C° 0 mm 1 mps 741 mmHg 69%
    02:00 +3°C° 0 mm 1 mps 740 mmHg 70%
    03:00 +3°C° 0 mm 1 mps 740 mmHg 71%
    04:00 +2°C° 0 mm 2 mps 740 mmHg 72%
    05:00 +2°C° 0 mm 2 mps 740 mmHg 72%
    06:00 +2°C° 0 mm 2 mps 740 mmHg 73%
    07:00 +2°C° 0 mm 2 mps 741 mmHg 73%
    08:00 +3°C° 0 mm 2 mps 741 mmHg 69%
    09:00 +6°C° 0 mm 1 mps 741 mmHg 65%
    10:00 +7°C° 0 mm 1 mps 741 mmHg 61%
    11:00 +8°C° 0 mm 1 mps 741 mmHg 60%
    12:00 +9°C° 0 mm 1 mps 741 mmHg 60%
    13:00 +10°C° 0 mm 1 mps 741 mmHg 60%
    14:00 +10°C° 0 mm 1 mps 741 mmHg 60%
    15:00 +10°C° 0 mm 1 mps 741 mmHg 61%
    16:00 +10°C° 0 mm 1 mps 741 mmHg 62%
    17:00 +8°C° 0 mm 1 mps 741 mmHg 68%
    18:00 +7°C° 0 mm 1 mps 742 mmHg 75%
    19:00 +4°C° 0 mm 0 mps 742 mmHg 81%
    20:00 +5°C° 0 mm 1 mps 742 mmHg 83%
    21:00 +4°C° 0 mm 1 mps 742 mmHg 84%
    22:00 +4°C° 0 mm 1 mps 742 mmHg 86%
    23:00 +4°C° 0 mm 1 mps 742 mmHg 86%

    26 February, Tuesday

    Time Temperature Precipitation Wind Pressure Humidity
    00:00 +3°C° 0 mm 1 mps 742 mmHg 86%
    01:00 +3°C° 0 mm 1 mps 742 mmHg 86%
    02:00 +3°C° 0 mm 1 mps 741 mmHg 84%
    03:00 +3°C° 0 mm 1 mps 741 mmHg 82%
    04:00 +3°C° 0 mm 1 mps 740 mmHg 79%
    05:00 +3°C° 0 mm 1 mps 740 mmHg 76%
    06:00 +3°C° 0 mm 1 mps 740 mmHg 73%
    07:00 +3°C° 0 mm 1 mps 739 mmHg 69%
    08:00 +5°C° 0 mm 1 mps 739 mmHg 63%
    09:00 +7°C° 0 mm 1 mps 739 mmHg 56%
    10:00 +9°C° 0 mm 1 mps 739 mmHg 50%
    11:00 +10°C° 0 mm 1 mps 738 mmHg 47%
    12:00 +12°C° 0 mm 1 mps 738 mmHg 45%
    13:00 +13°C° 0 mm 1 mps 737 mmHg 42%
    14:00 +13°C° 0 mm 2 mps 737 mmHg 46%
    15:00 +12°C° 0 mm 2 mps 737 mmHg 49%
    16:00 +12°C° 0 mm 2 mps 737 mmHg 53%
    17:00 +10°C° 0 mm 2 mps 737 mmHg 59%
    18:00 +8°C° 0 mm 2 mps 737 mmHg 65%
    19:00 +6°C° 0 mm 2 mps 737 mmHg 71%
    20:00 +6°C° 0 mm 2 mps 737 mmHg 72%
    21:00 +5°C° 0 mm 2 mps 737 mmHg 73%
    22:00 +5°C° 0 mm 2 mps 737 mmHg 74%
    23:00 +5°C° 0 mm 2 mps 737 mmHg 74%
    Show more